Regional Weather Roundup
Issued by NWS Upton, NY

Current Version | Previous Version | Text Only | Print | Product List | Glossary On
Versions: 1 2 3 4 5 6 7 8 9 10 11 12 13 14 15 16 17 18 19 20 21 22 23 24 25 26 27
000
ASUS41 KOKX 201609
RWROKX

REGIONAL WEATHER ROUNDUP
NATIONAL WEATHER SERVICE NEW YORK NY
1200 PM EDT SUN AUG 20 2017

NOTE: "FAIR" INDICATES FEW OR NO CLOUDS BELOW 12,000 FEET WITH NO
SIGNIFICANT WEATHER AND/OR OBSTRUCTIONS TO VISIBILITY.

NYZ071-072-176-178-NJZ106-104-201700-
NEW YORK CITY METRO AREA

CITY           SKY/WX    TMP DP  RH WIND       PRES   REMARKS
Central Park   SUNNY     78  59  51 VRB6      30.09R
Bronx Bot Gard   N/A     77  57  50 W9        30.07F
LaGuardia APRT PTSUNNY   79  59  50 NW14      30.05R
Kennedy INTL   MOSUNNY   81  59  47 W15G23    30.06S
Breezy Point     N/A     77 N/A N/A W7          N/A
Newark/Liberty PTSUNNY   80  59  48 NW13      30.06S
Teterboro      MOSUNNY   78  60  53 NW14G20   30.05R
$$

NYZ177-179-078>081-201700-
LONG ISLAND NEW YORK

CITY           SKY/WX    TMP DP  RH WIND       PRES   REMARKS
Jones Beach      N/A     77 N/A N/A NW9G15      N/A
Matinecock PT    N/A     75 N/A N/A W7          N/A
Farmingdale    MOSUNNY   79  60  52 NW8       30.05R
MacArthur/ISP  MOSUNNY   80  60  50 N12       30.03S
Shirley        SUNNY     81  64  56 N12       30.04R
Mt Sinai Harb    N/A     79 N/A N/A NW5         N/A
Westhampton    MOSUNNY   80  60  50 NW14      30.05R
East Hampton   FAIR      77  64  62 NW8       30.01S
Montauk          N/A     77  65  66 W10       30.02R
$$

NYZ052-065-067-201700-
HUDSON VALLEY

CITY           SKY/WX    TMP DP  RH WIND       PRES   REMARKS
White Plains   MOSUNNY   77  61  57 W9        30.06R
Larchmont Harb   N/A     75 N/A N/A W8          N/A
Croton On Huds   N/A     75 N/A N/A NW9         N/A
Newburgh       PTSUNNY   75  61  60 NW9       30.09R
Montgomery     SUNNY     77  58  51 NW6       30.07R
Poughkeepsie   MOSUNNY   77  58  51 W9        30.05R
Albany         PTSUNNY   76  59  55 NW13      30.05R
$$

NJZ001-105-106-008-010-013-015-019>022-104-201700-
NEW JERSEY

CITY           SKY/WX    TMP DP  RH WIND       PRES   REMARKS
Newark/Liberty PTSUNNY   80  59  48 NW13      30.06S
Teterboro      MOSUNNY   78  60  53 NW14G20   30.05R
Caldwell       SUNNY     77  60  55 NW14G20   30.08R
Somerville     MOSUNNY   79  62  56 VRB5      30.07S
Linden         FAIR      79  57  47 N13G20    30.07S
Perth Amboy      N/A     75 N/A N/A NW10        N/A
Sussex         MOSUNNY   76  61  59 NW9       30.10R
Andover          N/A     75  59  57 VRB6      30.10R
Trenton        SUNNY     77  61  57 W8        30.09S
Millville      SUNNY     81  63  54 VRB6      30.10S
Atlantic City  SUNNY     81  62  52 NW9       30.09S
Wrightstown    SUNNY     78  62  58 NW6       30.07S
Toms River     SUNNY     78  61  55 N8        30.09S
Belmar         SUNNY     79  62  56 NW9       30.09S
$$

PAZ047>061-062-071-201700-
EASTERN PENNSYLVANIA

CITY           SKY/WX    TMP DP  RH WIND       PRES   REMARKS
Philadelphia   MOSUNNY   80  59  48 N6        30.11R
Allentown      SUNNY     77  60  55 NW7       30.11R
Scranton       MOSUNNY   74  59  59 W8        30.14R
$$

CTZ002-004>006-009-010-012-RIZ004-006-007-MAZ004-011-015-201700-
SOUTHERN NEW ENGLAND
 IN CT

CITY           SKY/WX    TMP DP  RH WIND       PRES   REMARKS
Bradley INTL   MOSUNNY   80  59  48 NW14      30.01S
Hartford       CLOUDY    78  60  53 VRB6      30.01R
Danbury        MOSUNNY   77  61  57 NW9       30.07R
Wtrbury/Oxford PTSUNNY   74  61  63 NW8       30.06R
Norwalk Harbor   N/A     75 N/A N/A N6          N/A
Bridgeport     PTSUNNY   79  60  52 NW9       30.03R
Meriden        MOSUNNY   77  58  51 NW8G21    30.02S
New Haven      PTSUNNY   78  61  55 VRB7      30.03R
Chester        FAIR      77  59  53 W8G20     30.03R
Groton         MOSUNNY   81  61  50 NW8       29.99R
Wilimantic     MOSUNNY   79  60  52 W12G21    30.01R

 IN RI

CITY           SKY/WX    TMP DP  RH WIND       PRES   REMARKS
Providence     MOSUNNY   82  61  48 NW13      29.98R
Block Island   SUNNY     77  64  64 W14       30.00S
Westerly       SUNNY     82  61  48 NW9       30.00R
 IN MA

CITY           SKY/WX    TMP DP  RH WIND       PRES   REMARKS
Boston         MOSUNNY   82  61  48 NW10G18   29.95R
Worcester      PTSUNNY   75  56  51 W14       30.02R
Westfield      PTSUNNY   80  58  46 N13G20    30.01R
Provincetown   SUNNY     77  64  64 NW9       29.96R
Nantucket      SUNNY     79  68  69 SW12      29.96R
$$

ANZ330-335-338-340-345-350-353-355-201700-
COASTAL MARINE OBSERVATIONS


STATION/POSITION TIME  SKY/WX   TEMP    WIND        PRES    VSBY  WAVE
                                AIR SEA DIR/SP/G                  HT/PER
                 (UTC)          (F)     (DEG/KT/KT) (MB)    (MI)  (FT/S)
NY HARB ENTRANCE 1550            73 76  280/ 14/ 17 1017.5          2/ 6
GREAT SOUTH BAY  1530            76 78  310/  8/ 12   N/A
23 SSW MONTAUK P 1450            72 72              1016.7          3/ 6
15 E BARNEGAT LI 1530               77                N/A           3/ 7
HUDSON CANYON    1450            74 74  310/ 16/ 17 1016.7          4/ 5
KINGS POINT      1530            74 74  340/  8/ 10 1017.5
EXECUTION ROCKS  NOT AVBL
WESTERN LI SOUND NOT AVBL
CENTRAL LI SOUND NOT AVBL
EASTERN LI SOUND NOT AVBL
ROBBINS REEF     1536                   300/ 11/ 14 1018.5
$$


>>>>>>>>>>>>>>>>>>>>>>>>>>>> KEY <<<<<<<<<<<<<<<<<<<<<<<<<<<
>                                                          <
>     SKY/WX - Sky Condition/Present Weather               <
>     TMP    - Temperature in Fahrenheit                   <
>     DP     - Dew Point in Fahrenheit                     <
>     RH     - Relative Humidity in Percent                <
>     WIND   - Direction (from) and Speed in MPH           <
>     PRES   - Mean Sea Level Pressure (inches of Hg)      <
>     WCI    - Wind Chill Index                            <
>     VSB    - VISIBILITY IN MILES                         <
>     HX     - HEAT INDEX                                  <
>     TC     - TEMPERATURE IN CELSIUS                      <
>     VRB    - VARIABLE WIND DIRECTION                     <
>                                                          <
>>>>>>>>>>>>>>>>>>>>>>>>>>>> KEY <<<<<<<<<<<<<<<<<<<<<<<<<<<




USA.gov is the U.S. government's official web portal to all federal, state and local government web resources and services.